EN

Hourly Weather Alleppey

Today, 18 January, Monday

Time Temperature Precipitation Wind Pressure Humidity
00:00 +26°C° 0 mm 2 mps 757 mmHg 90%
01:00 +25°C° 0 mm 2 mps 757 mmHg 91%
02:00 +25°C° 0 mm 2 mps 756 mmHg 92%
03:00 +24°C° 0 mm 2 mps 756 mmHg 91%
04:00 +24°C° 0 mm 3 mps 757 mmHg 89%
05:00 +23°C° 0 mm 2 mps 757 mmHg 90%
06:00 +24°C° 0 mm 3 mps 757 mmHg 85%
07:00 +25°C° 0 mm 3 mps 757 mmHg 80%
08:00 +26°C° 0 mm 3 mps 758 mmHg 76%
09:00 +29°C° 0 mm 2 mps 758 mmHg 66%
10:00 +31°C° 0 mm 2 mps 758 mmHg 57%
11:00 +34°C° 0 mm 1 mps 758 mmHg 48%
12:00 +35°C° 0 mm 2 mps 757 mmHg 45%
13:00 +35°C° 0 mm 3 mps 756 mmHg 42%
14:00 +36°C° 0 mm 3 mps 756 mmHg 40%
15:00 +34°C° 0 mm 3 mps 755 mmHg 49%
16:00 +33°C° 0 mm 3 mps 755 mmHg 58%
17:00 +30°C° 0 mm 3 mps 755 mmHg 66%
18:00 +29°C° 0 mm 3 mps 756 mmHg 69%
19:00 +27°C° 0 mm 2 mps 756 mmHg 72%
20:00 +25°C° 0 mm 2 mps 757 mmHg 75%
21:00 +25°C° 0 mm 3 mps 757 mmHg 77%
22:00 +24°C° 0 mm 3 mps 757 mmHg 80%
23:00 +24°C° 0 mm 3 mps 757 mmHg 82%

Tomorrow, 19 January, Tuesday

Time Temperature Precipitation Wind Pressure Humidity
00:00 +22°C° 0 mm 3 mps 757 mmHg 82%
01:00 +22°C° 0 mm 3 mps 757 mmHg 82%
02:00 +21°C° 0 mm 3 mps 756 mmHg 81%
03:00 +21°C° 0 mm 3 mps 756 mmHg 81%
04:00 +21°C° 0 mm 2 mps 756 mmHg 82%
05:00 +21°C° 0 mm 2 mps 756 mmHg 82%
06:00 +23°C° 0 mm 2 mps 757 mmHg 78%
07:00 +24°C° 0 mm 2 mps 757 mmHg 73%
08:00 +25°C° 0 mm 2 mps 758 mmHg 69%
09:00 +28°C° 0 mm 1 mps 758 mmHg 62%
10:00 +31°C° 0 mm 1 mps 758 mmHg 56%
11:00 +31°C° 0 mm 0 mps 758 mmHg 49%
12:00 +33°C° 0 mm 1 mps 757 mmHg 48%
13:00 +34°C° 0 mm 2 mps 757 mmHg 47%
14:00 +34°C° 0 mm 3 mps 756 mmHg 47%
15:00 +33°C° 0 mm 3 mps 756 mmHg 54%
16:00 +30°C° 0 mm 3 mps 756 mmHg 60%
17:00 +29°C° 0 mm 3 mps 756 mmHg 67%
18:00 +28°C° 0 mm 2 mps 756 mmHg 71%
19:00 +27°C° 0 mm 2 mps 757 mmHg 74%
20:00 +26°C° 0 mm 1 mps 757 mmHg 78%
21:00 +25°C° 0 mm 1 mps 757 mmHg 80%
22:00 +25°C° 0 mm 1 mps 757 mmHg 82%
23:00 +24°C° 0 mm 2 mps 758 mmHg 85%

Day after tomorrow, 20 January, Wednesday

Time Temperature Precipitation Wind Pressure Humidity
00:00 +24°C° 0 mm 2 mps 757 mmHg 85%
01:00 +24°C° 0 mm 2 mps 757 mmHg 85%
02:00 +24°C° 0 mm 2 mps 757 mmHg 85%
03:00 +24°C° 0 mm 2 mps 757 mmHg 85%
04:00 +24°C° 0 mm 2 mps 757 mmHg 84%
05:00 +23°C° 0 mm 2 mps 757 mmHg 84%
06:00 +24°C° 0 mm 2 mps 758 mmHg 81%
07:00 +25°C° 0 mm 2 mps 758 mmHg 77%
08:00 +26°C° 0 mm 2 mps 759 mmHg 74%
09:00 +28°C° 0 mm 1 mps 759 mmHg 66%
10:00 +31°C° 0 mm 1 mps 759 mmHg 59%
11:00 +31°C° 0 mm 0 mps 759 mmHg 51%
12:00 +33°C° 0 mm 1 mps 758 mmHg 53%
13:00 +32°C° 0 mm 1 mps 757 mmHg 54%
14:00 +32°C° 0 mm 2 mps 756 mmHg 56%
15:00 +31°C° 0 mm 2 mps 756 mmHg 61%
16:00 +29°C° 0 mm 2 mps 756 mmHg 67%
17:00 +28°C° 0 mm 2 mps 756 mmHg 73%
18:00 +28°C° 0 mm 2 mps 757 mmHg 75%
19:00 +27°C° 0 mm 2 mps 757 mmHg 77%
20:00 +26°C° 0 mm 1 mps 758 mmHg 79%
21:00 +26°C° 0 mm 2 mps 758 mmHg 81%
22:00 +26°C° 0 mm 2 mps 758 mmHg 83%
23:00 +25°C° 0 mm 2 mps 758 mmHg 84%

21 January, Thursday

Time Temperature Precipitation Wind Pressure Humidity
00:00 +25°C° 0 mm 2 mps 758 mmHg 84%
01:00 +25°C° 0 mm 2 mps 757 mmHg 84%
02:00 +25°C° 0 mm 2 mps 757 mmHg 83%
03:00 +24°C° 0 mm 2 mps 757 mmHg 83%
04:00 +24°C° 0 mm 2 mps 757 mmHg 83%
05:00 +24°C° 0 mm 2 mps 757 mmHg 83%
06:00 +25°C° 0 mm 2 mps 757 mmHg 79%
07:00 +27°C° 0 mm 1 mps 758 mmHg 75%
08:00 +28°C° 0 mm 1 mps 758 mmHg 71%
09:00 +30°C° 0 mm 1 mps 758 mmHg 65%
10:00 +32°C° 0 mm 1 mps 758 mmHg 58%
11:00 +34°C° 0 mm 1 mps 758 mmHg 52%
12:00 +35°C° 0 mm 2 mps 757 mmHg 54%
13:00 +34°C° 0 mm 3 mps 756 mmHg 57%
14:00 +34°C° 0 mm 4 mps 756 mmHg 59%
15:00 +33°C° 0 mm 4 mps 756 mmHg 64%
16:00 +32°C° 0 mm 4 mps 756 mmHg 68%
17:00 +30°C° 0 mm 4 mps 755 mmHg 72%
18:00 +29°C° 0 mm 3 mps 756 mmHg 76%
19:00 +28°C° 0 mm 3 mps 757 mmHg 80%
20:00 +27°C° 0 mm 2 mps 757 mmHg 84%
21:00 +27°C° 0 mm 2 mps 757 mmHg 85%
22:00 +26°C° 0 mm 2 mps 757 mmHg 86%
23:00 +26°C° 0 mm 2 mps 757 mmHg 88%

22 January, Friday

Time Temperature Precipitation Wind Pressure Humidity
00:00 +26°C° 0 mm 2 mps 757 mmHg 89%
01:00 +26°C° 0 mm 2 mps 757 mmHg 90%
02:00 +25°C° 0 mm 2 mps 756 mmHg 91%
03:00 +25°C° 0.1 mm 2 mps 757 mmHg 91%
04:00 +25°C° 0.1 mm 2 mps 757 mmHg 91%
05:00 +25°C° 0.1 mm 2 mps 757 mmHg 92%
06:00 +26°C° 0.1 mm 2 mps 757 mmHg 87%
07:00 +27°C° 0.1 mm 2 mps 758 mmHg 82%
08:00 +29°C° 0.1 mm 2 mps 758 mmHg 77%
09:00 +31°C° 0 mm 2 mps 758 mmHg 69%
10:00 +33°C° 0 mm 1 mps 758 mmHg 60%
11:00 +36°C° 0 mm 1 mps 758 mmHg 52%
12:00 +36°C° 0 mm 2 mps 757 mmHg 54%
13:00 +35°C° 0 mm 3 mps 756 mmHg 56%
14:00 +34°C° 0 mm 4 mps 755 mmHg 58%
15:00 +33°C° 0.1 mm 4 mps 755 mmHg 65%
16:00 +31°C° 0.1 mm 3 mps 755 mmHg 71%
17:00 +30°C° 0.1 mm 3 mps 755 mmHg 78%
18:00 +29°C° 0.4 mm 3 mps 755 mmHg 82%
19:00 +28°C° 0.4 mm 2 mps 756 mmHg 85%
20:00 +27°C° 0.4 mm 2 mps 757 mmHg 89%
21:00 +27°C° 0.3 mm 2 mps 757 mmHg 90%
22:00 +26°C° 0.3 mm 2 mps 757 mmHg 91%
23:00 +26°C° 0.3 mm 1 mps 757 mmHg 92%

23 January, Saturday

Time Temperature Precipitation Wind Pressure Humidity
00:00 +26°C° 0.1 mm 2 mps 757 mmHg 93%
01:00 +26°C° 0.1 mm 2 mps 756 mmHg 94%
02:00 +25°C° 0.1 mm 2 mps 756 mmHg 95%
03:00 +25°C° 0.2 mm 2 mps 756 mmHg 95%
04:00 +25°C° 0.2 mm 2 mps 756 mmHg 95%
05:00 +25°C° 0.2 mm 3 mps 756 mmHg 96%
06:00 +25°C° 0.1 mm 2 mps 757 mmHg 92%
07:00 +26°C° 0.1 mm 2 mps 757 mmHg 89%
08:00 +26°C° 0.1 mm 2 mps 758 mmHg 86%
09:00 +29°C° 0 mm 1 mps 758 mmHg 74%
10:00 +32°C° 0 mm 1 mps 758 mmHg 62%
11:00 +33°C° 0 mm 0 mps 758 mmHg 50%
12:00 +35°C° 0 mm 1 mps 757 mmHg 50%
13:00 +35°C° 0 mm 2 mps 756 mmHg 50%
14:00 +35°C° 0 mm 4 mps 756 mmHg 50%
15:00 +34°C° 0 mm 4 mps 755 mmHg 57%
16:00 +32°C° 0 mm 4 mps 755 mmHg 64%
17:00 +30°C° 0 mm 4 mps 755 mmHg 71%
18:00 +29°C° 0.1 mm 3 mps 756 mmHg 76%
19:00 +28°C° 0.1 mm 3 mps 756 mmHg 81%
20:00 +27°C° 0.1 mm 2 mps 757 mmHg 86%
21:00 +26°C° 0 mm 2 mps 757 mmHg 87%
22:00 +26°C° 0 mm 2 mps 757 mmHg 89%
23:00 +25°C° 0 mm 2 mps 757 mmHg 90%
Show more